AirNav   Everest Fuels
 
 965 users online  

84MO Holiday Inn Westport Heliport
St Louis, Missouri, USA

GOING TO ST LOUIS?


FAA INFORMATION EFFECTIVE 31 DECEMBER 2020

Location

FAA Identifier: 84MO
Lat/Long: 38-41-38.1870N 090-26-55.4270W
38-41.636450N 090-26.923783W
38.6939408,-90.4487297
(estimated)
Elevation: 600 ft. / 183 m (estimated)
Variation: 02E (1985)
From city: 15 miles NW of ST LOUIS, MO
Time zone: UTC -6 (UTC -5 during Daylight Saving Time)
Zip code: 63146

Heliport Operations

Heliport use: Private use. Permission required prior to landing
Activation date: 04/1983
Control tower: no
ARTCC: KANSAS CITY CENTER
FSS: SAINT LOUIS FLIGHT SERVICE STATION
Attendance: DAWN-2300
Wind indicator: no
Segmented circle: yes

Heliport Communications

WX ASOS at STL (5 nm NE): 125.025 (314-890-4790)
WX ASOS at SUS (10 nm W): 134.8 (314-890-7255)
WX ASOS at SET (14 nm N): 118.075 (636-250-4590)
WX ASOS at CPS (16 nm SE): PHONE 618-332-0001

Nearby radio navigation aids

VOR radial/distance  VOR name  Freq  Var
STLr170/10.1ST LOUIS VORTAC117.4001E
FTZr085/24.5FORISTELL VORTAC110.8005E
TOYr260/25.0TROY VORTAC116.0004E

 
NDB name  Hdg/Dist  Freq  Var  ID
EAVES079/4.722701WFZ ..-. --..
CIVIC MEMORIAL238/21.926301WCVM -.-. ...- --

Heliport Services

Runway Information

Helipad H1

Dimensions: 86 x 86 ft. / 26 x 26 m
Surface: asphalt/concrete
Latitude: 38-41.636500N
Longitude: 090-26.923833W
Elevation: 600.0 ft.
Traffic pattern: leftleft

Heliport Ownership and Management from official FAA records

Ownership: Privately-owned
Owner: DOUBLETREE ST. LOUIS AT WESTPORT
1973 CRAIGSHIRE DR.
ST. LOUIS, MO 63146
Phone 573-434-0100
ANITA M. SUMNER, ST. LOUIS HOTEL CORP.
Manager: DAN GOUGH
1973 CRAIGSHIRE DRIVE
ST. LOUIS, MO 63146
Phone 314-434-0100

Additional Remarks

FOR CD CTC ST LOUIS APCH AT 314-890-1018.

Instrument Procedures

There are no published instrument procedures at 84MO.

Some nearby airports with instrument procedures:

1H0 - Creve Coeur Airport (3 nm NW)
KSTL - St Louis Lambert International Airport (5 nm NE)
KSUS - Spirit of St Louis Airport (10 nm W)
KSET - St Charles County Smartt Airport (14 nm N)
KCPS - St Louis Downtown Airport (16 nm SE)
 
Loc | Ops | Rwys | IFR | FBO | Links
Com | Nav | Svcs | Stats | Notes
Area around 84MO (Holiday Inn Westport Heliport)
 
Road maps at: MapQuest Bing Google
 
Aerial photo
No photo
 
Sectional chart

 
Airport distance calculator
Flying to Holiday Inn Westport Heliport? Find the distance to fly.

From to 84MO

Sunrise and sunset
Times for 24-Jan-2021
 Local
(UTC-6)
 Zulu
(UTC)
Morning civil twilight06:4612:46
Sunrise07:1513:15
Sunset17:1323:13
Evening civil twilight17:4223:42

Current date and time
Zulu (UTC)  25-Jan-2021 01:13:11
Local (UTC-6)  24-Jan-2021 19:13:11
 
METAR
KSTL 
5nm NE 
250051Z 09004KT 10SM OVC055 04/M01 A3006 RMK AO2 SLP187 T00391006 $
KSUS 
10nm W 
250054Z 08003KT 10SM OVC031 04/M01 A3005 RMK AO2 SLP181 T00441006
KSET 
14nm N 
250054Z AUTO 05003KT 10SM SCT060 03/M02 A3005 RMK AO2 SLP178 T00331017 $
KCPS 
16nm SE 
250053Z 10003KT 10SM OVC055 03/01 A3006 RMK AO2 SLP183 T00330011
TAF
KSTL 
5nm NE 
242056Z 2421/2524 VRB03KT P6SM OVC035 FM250300 08006KT P6SM OVC006 FM250800 08005KT 2SM RA BR OVC005 FM251500 08010G20KT 3SM RA BR OVC006
KSUS 
10nm W 
242051Z 2421/2518 VRB03KT P6SM OVC035 FM250300 VRB03KT P6SM OVC006 FM250800 08005KT 2SM RA BR OVC005 FM251500 08010G20KT 3SM RA BR OVC006
KCPS 
16nm SE 
242051Z 2421/2518 VRB03KT P6SM OVC035 FM250300 VRB03KT P6SM OVC006 FM250800 08005KT 2SM RA BR OVC005 FM251500 08010G20KT 3SM RA BR OVC006
NOTAMs
Click for the latest NOTAMs
NOTAMs are issued by the DoD/FAA and will open in a separate window not controlled by AirNav.

 

 
 

Would you like to see your business listed on this page?

 If your business provides an interesting product or service to pilots, flight crews, aircraft, or users of the Holiday Inn Westport Heliport, you should consider listing it here.  To start the listing process, click on the button below
 
Add a business
 

Other Pages about Holiday Inn Westport Heliport

Update a link
 
Copyright © AirNav, LLC. All rights reserved. Privacy Policy  Contact